[[{"header":{"parameterUnit":"m.s-1","parameterCategory":1,"la1":30.2991,"la2":30.254,"lo1":-89.0895,"lo2":-89.0444,"dy":0.0017,"dx":0.0017,"nx":28,"ny":28,"refTime":"2024-05-16T21:00:00:Z","depth":0,"parameterNumber":2,"parameterNumberName":"U-component_of_WINDS"},"data":[0,0,0,0,0,0,0,0,0,0,0,0,0,0,0,0,0,0,0,0,0,0,0,0,0,0,0,0,0,0,0,0,0,0,0,0,0,0,0,0,0,0,0,0,0,0,0,0,0,0,0,0,0,0,0,0,0,0,-4.2885,-4.2886,0,-4.297,-4.2971,-4.2972,-4.2983,-4.2982,-4.2981,-4.298,-4.3064,-4.3067,-4.307,0,0,0,0,0,0,0,0,0,0,0,0,0,-4.2729,-4.2732,-4.2885,-4.2886,-4.2887,-4.297,-4.2971,-4.2972,-4.2983,-4.2982,-4.2981,-4.298,-4.3063,-4.3066,-4.307,0,0,0,0,0,0,0,0,0,0,0,0,0,-4.2803,-4.2733,-4.2884,-4.2902,-4.2905,-4.2969,-4.2971,-4.2972,-4.2983,-4.2982,-4.2981,-4.2979,-4.3062,-4.3066,-4.307,-4.3122,0,0,-4.3084,-4.3086,0,0,0,0,0,0,0,0,-4.2799,-4.2809,-4.2899,-4.2901,-4.2904,-4.2964,-4.2946,-4.3022,-4.2983,-4.2953,-4.298,-4.2979,-4.3032,-4.3038,-4.3057,-4.3126,-4.313,-4.3084,-4.3087,-4.3089,-4.309,0,0,0,0,0,0,0,-4.2794,-4.2805,-4.2918,-4.29,-4.2903,-4.2905,-4.2914,-4.2961,-4.2998,-4.2956,-4.2957,-4.2967,-4.3033,-4.3053,-4.3059,-4.3131,-4.3084,-4.3088,-4.3091,-4.3093,-4.3246,-4.3247,0,0,0,0,0,0,-4.2786,-4.2801,-4.2915,-4.2921,-4.2848,-4.2909,-4.2919,-4.2946,-4.2998,-4.3004,-4.2968,-4.2967,-4.3046,-4.3054,-4.3062,-4.3125,-4.3089,-4.3093,-4.3096,-4.3245,-4.3246,-4.3248,0,0,0,0,0,0,-4.2783,-4.2796,-4.2912,-4.2861,-4.2876,-4.2913,-4.2943,-4.2948,-4.2968,-4.3007,-4.3013,-4.2981,-4.3045,-4.3056,-4.3107,-4.3128,-4.3095,-4.3099,-4.3243,-4.3245,-4.3247,-4.3251,0,0,0,0,0,0,-4.2778,-4.2795,-4.2815,-4.2862,-4.2879,-4.2957,-4.2944,-4.2951,-4.2976,-4.2976,-4.3021,-4.3027,-4.3045,-4.31,-4.3112,-4.3133,-4.3103,-4.3241,-4.3244,-4.3246,-4.3249,-4.3253,-4.3256,0,0,0,0,0,-4.2772,-4.2813,-4.2816,-4.283,-4.2906,-4.2958,-4.2968,-4.2988,-4.2978,-4.2998,-4.3023,-4.3026,-4.3124,-4.3106,-4.3118,-4.3142,-4.324,-4.3243,-4.3246,-4.3248,-4.3252,-4.3256,0,0,0,0,0,0,-4.2766,-4.2819,-4.2824,-4.288,-4.2915,-4.296,-4.2986,-4.2992,-4.3029,-4.3027,-4.305,-4.306,-4.311,-4.3132,-4.311,-4.3194,-4.3181,-4.3187,-4.3178,-4.3183,-4.3186,-4.3179,-4.3107,0,0,0,0,0,-4.2772,-4.2811,-4.2855,-4.29,-4.2917,-4.2949,-4.2972,-4.2985,-4.3021,-4.3035,-4.3064,-4.3098,-4.3136,-4.3161,-4.3199,-4.3253,-4.3262,-4.3276,-4.3279,-4.3282,-4.3286,-4.3315,-4.3321,-4.3258,-4.3258,-4.3258,0,0,-4.2783,-4.2817,-4.284,-4.29,-4.2928,-4.2967,-4.2961,-4.3002,-4.3031,-4.3041,-4.3091,-4.3114,-4.3153,-4.3206,-4.3231,-4.3225,-4.3306,-4.3286,-4.3288,-4.329,-4.3319,-4.3325,-4.333,-4.326,-4.326,-4.3259,0,0,-4.2823,-4.2853,-4.2894,-4.2922,-4.2966,-4.2987,-4.2996,-4.3041,-4.3056,-4.3108,-4.3116,-4.315,-4.3217,-4.3244,-4.3267,-4.3318,-4.3321,-4.333,-4.3347,-4.3376,-4.3381,-4.3385,-4.3402,-4.3408,-4.3334,-4.3334,-4.3334,0,-4.283,-4.289,-4.2913,-4.2955,-4.298,-4.2994,-4.3034,-4.3061,-4.3114,-4.3131,-4.3124,-4.3208,-4.3235,-4.3294,-4.3307,-4.3326,-4.3336,-4.3323,-4.3378,-4.3383,-4.3387,-4.3403,-4.341,-4.3335,-4.3335,-4.3335,-4.3335,0,-4.2897,-4.2938,-4.2966,-4.3018,-4.3047,-4.3088,-4.3116,-4.3143,-4.3154,-4.3175,-4.3226,-4.326,-4.3305,-4.332,-4.3331,-4.3381,-4.3376,-4.3374,-4.3361,-4.3394,-4.3409,-4.3415,-4.3336,-4.3335,-4.3335,-4.3335,0,0,-4.2933,-4.2998,-4.3008,-4.3031,-4.308,-4.3112,-4.3154,-4.3198,-4.322,-4.3256,-4.329,-4.3347,-4.3345,-4.3371,-4.3385,-4.341,-4.3447,-4.3405,-4.3406,-4.341,-4.3502,-4.3502,-4.3509,-4.3451,-4.3452,-4.3453,-4.3498,0,-4.2977,-4.3051,-4.3074,-4.3136,-4.3174,-4.3188,-4.3223,-4.3257,-4.3278,-4.3313,-4.3336,-4.3375,-4.3371,-4.3386,-4.3412,-4.3437,-4.3465,-4.3434,-4.348,-4.3482,-4.3468,-4.3517,-4.3517,-4.3558,-4.3505,-4.3506,-4.3507,0,-4.3037,-4.3076,-4.3142,-4.3186,-4.3203,-4.3235,-4.3277,-4.3311,-4.3349,-4.3363,-4.3392,-4.3404,-4.3447,-4.3433,-4.3491,-4.347,-4.349,-4.3506,-4.3508,-4.3511,-4.3494,-4.3519,-4.3572,-4.3577,-4.3517,-4.3516,-4.3515,0,-4.3054,-4.3123,-4.3171,-4.3191,-4.3245,-4.3266,-4.3289,-4.3327,-4.3352,-4.3389,-4.3406,-4.3447,-4.3469,-4.3501,-4.3523,-4.3512,-4.3579,-4.3568,-4.359,-4.3589,-4.3601,-4.36,-4.3655,-4.3618,-4.3618,-4.3618,-4.3618,0,-4.31,-4.3139,-4.318,-4.3209,-4.3253,-4.3279,-4.3322,-4.3346,-4.3379,-4.3412,-4.3427,-4.3458,-4.3487,-4.3522,-4.354,-4.3584,-4.3595,-4.3606,-4.3609,-4.3603,-4.3601,-4.3615,-4.3612,-4.362,-4.3619,-4.3619,-4.3619,0,-4.3125,-4.3154,-4.3207,-4.3254,-4.3267,-4.3297,-4.3337,-4.3365,-4.3388,-4.343,-4.3442,-4.3477,-4.3518,-4.3545,-4.3597,-4.3609,-4.3657,-4.3661,-4.3644,-4.3646,-4.3666,-4.3663,-4.373,-4.374,-4.3698,-4.3699,-4.3699,0,-4.3151,-4.3182,-4.3232,-4.3256,-4.328,-4.3318,-4.3344,-4.3371,-4.3398,-4.3444,-4.3467,-4.3509,-4.3545,-4.361,-4.3639,-4.368,-4.3684,-4.3705,-4.3689,-4.3682,-4.3681,-4.3678,-4.3681,-4.3706,-4.3706,-4.3707,-4.3707,0,-4.3193,-4.3206,-4.3244,-4.3287,-4.3318,-4.3353,-4.3388,-4.3406,-4.3439,-4.3468,-4.3511,-4.3539,-4.3593,-4.3634,-4.3678,-4.37,-4.3708,-4.3712,-4.3719,-4.3711,-4.3699,-4.3704,-4.3649,-4.371,-4.3709,-4.3709,-4.3709,-4.3709,-4.3218,-4.3246,-4.3286,-4.3327,-4.3357,-4.3389,-4.3418,-4.3445,-4.3481,-4.3528,-4.3542,-4.3586,-4.3624,-4.3683,-4.3706,-4.3741,-4.3738,-4.3749,-4.3751,-4.3752,-4.3752,-4.3696,-4.3749,-4.3749,-4.3749,-4.3749,-4.3749,0,-4.3259,-4.3286,-4.3324,-4.3373,-4.3405,-4.3413,-4.3451,-4.3478,-4.3517,-4.3552,-4.3587,-4.3636,-4.3677,-4.371,-4.3752,-4.3773,-4.3778,-4.3783,-4.378,-4.3785,-4.3753,-4.3742,-4.3778,-4.3778,-4.3778,-4.3778,-4.3778,-4.3778,-4.3285,-4.3331,-4.3349,-4.341,-4.3437,-4.3481,-4.3503,-4.3532,-4.356,-4.3615,-4.3649,-4.3671,-4.3705,-4.3749,-4.3787,-4.3796,-4.3809,-4.3813,-4.3822,-4.3791,-4.3787,-4.3784,-4.3774,-4.3816,-4.3817,-4.3852,-4.3852,-4.3852]},{"header":{"parameterUnit":"m.s-1","parameterCategory":1,"la1":30.2991,"la2":30.254,"lo1":-89.0895,"lo2":-89.0444,"dy":0.0017,"dx":0.0017,"nx":28,"ny":28,"refTime":"2024-05-16T21:00:00:Z","depth":0,"parameterNumber":3,"parameterNumberName":"V-component_of_WINDS"},"data":[0,0,0,0,0,0,0,0,0,0,0,0,0,0,0,0,0,0,0,0,0,0,0,0,0,0,0,0,0,0,0,0,0,0,0,0,0,0,0,0,0,0,0,0,0,0,0,0,0,0,0,0,0,0,0,0,0,0,6.2333,6.2334,0,6.2372,6.2372,6.2373,6.2311,6.2309,6.2307,6.2305,6.2341,6.2344,6.2347,0,0,0,0,0,0,0,0,0,0,0,0,0,6.2205,6.2207,6.2333,6.2334,6.2334,6.2372,6.2372,6.2373,6.2311,6.2309,6.2306,6.2304,6.234,6.2344,6.2347,0,0,0,0,0,0,0,0,0,0,0,0,0,6.2254,6.2208,6.2333,6.2308,6.2306,6.2372,6.2372,6.2373,6.2312,6.2309,6.2305,6.2302,6.2339,6.2343,6.2348,6.2438,0,0,6.2361,6.2363,0,0,0,0,0,0,0,0,6.2251,6.2258,6.2311,6.231,6.2308,6.2333,6.234,6.2395,6.2313,6.231,6.2305,6.2301,6.2341,6.2345,6.2359,6.244,6.2442,6.2362,6.2364,6.2366,6.2367,0,0,0,0,0,0,0,6.2248,6.2256,6.2348,6.2312,6.231,6.2294,6.2298,6.235,6.2342,6.231,6.2305,6.2311,6.2339,6.2355,6.2359,6.2442,6.2361,6.2365,6.2368,6.237,6.26,6.2603,0,0,0,0,0,0,6.2248,6.2254,6.2347,6.235,6.2271,6.2299,6.2303,6.2328,6.2342,6.2341,6.2313,6.2308,6.2349,6.2354,6.236,6.2468,6.2366,6.237,6.2373,6.2597,6.2601,6.2604,0,0,0,0,0,0,6.2245,6.2257,6.2346,6.2301,6.2311,6.2305,6.2334,6.2331,6.2346,6.2345,6.2343,6.2331,6.2347,6.2354,6.242,6.2468,6.2372,6.2376,6.2592,6.2598,6.2603,6.2683,0,0,0,0,0,0,6.2242,6.2256,6.2291,6.2302,6.2314,6.2405,6.2337,6.2334,6.2354,6.2347,6.2361,6.236,6.2345,6.2414,6.2424,6.2473,6.238,6.2588,6.2595,6.2601,6.2676,6.2691,6.2703,0,0,0,0,0,6.2237,6.2311,6.2293,6.2305,6.2357,6.2408,6.2415,6.2397,6.2359,6.2393,6.2392,6.2359,6.2461,6.2421,6.2432,6.2483,6.2585,6.2593,6.26,6.267,6.2688,6.2703,0,0,0,0,0,0,6.2305,6.2312,6.2292,6.2372,6.239,6.2398,6.2441,6.2416,6.2444,6.2436,6.2412,6.2416,6.2486,6.2491,6.2445,6.2571,6.2517,6.2527,6.2566,6.2582,6.2595,6.2593,6.2383,0,0,0,0,0,6.2329,6.2371,6.2375,6.2445,6.2455,6.2447,6.2468,6.2453,6.247,6.2477,6.2481,6.2499,6.2535,6.2559,6.2592,6.2677,6.2679,6.2717,6.273,6.2741,6.2751,6.2796,6.2813,6.263,6.263,6.263,0,0,6.238,6.2389,6.2417,6.2459,6.2471,6.2514,6.2454,6.2501,6.2533,6.2484,6.2547,6.255,6.2568,6.2644,6.2678,6.265,6.2802,6.2751,6.276,6.2763,6.2806,6.2823,6.2839,6.2635,6.2634,6.2634,0,0,6.2494,6.2505,6.2565,6.2579,6.2599,6.2593,6.2607,6.2619,6.262,6.2682,6.2647,6.2684,6.2746,6.2761,6.2776,6.2897,6.2867,6.2908,6.2977,6.3022,6.3037,6.3049,6.3093,6.3108,6.2917,6.2918,6.2918,0,6.2554,6.2618,6.2599,6.265,6.267,6.2629,6.2689,6.2703,6.2732,6.2746,6.2716,6.2794,6.2803,6.2882,6.2911,6.2925,6.2941,6.2906,6.3036,6.3049,6.306,6.3101,6.3118,6.2922,6.2922,6.2921,6.2921,0,6.2691,6.2737,6.2782,6.2813,6.2838,6.2893,6.2882,6.2909,6.2892,6.2889,6.2953,6.2963,6.2997,6.3015,6.2998,6.3092,6.3074,6.304,6.2985,6.3083,6.3121,6.3137,6.2929,6.2928,6.2926,6.2925,0,0,6.2849,6.2869,6.2886,6.2899,6.2918,6.2953,6.3006,6.3041,6.3065,6.3086,6.313,6.3185,6.3154,6.3172,6.3156,6.3196,6.3291,6.3157,6.3157,6.3181,6.3395,6.342,6.3439,6.3272,6.3275,6.3277,6.3393,0,6.2962,6.3056,6.304,6.313,6.3172,6.3134,6.3181,6.3197,6.3196,6.3231,6.3229,6.3268,6.3224,6.3235,6.3272,6.3271,6.3333,6.3263,6.3312,6.3314,6.3309,6.3458,6.3485,6.3595,6.3408,6.341,6.3412,0,6.3108,6.3136,6.3231,6.3244,6.3261,6.3303,6.3334,6.3368,6.3386,6.3382,6.3403,6.338,6.3433,6.3377,6.3449,6.3402,6.3421,6.3424,6.3428,6.3431,6.3369,6.3466,6.3629,6.3646,6.3435,6.3434,6.3432,0,6.3213,6.3275,6.334,6.3352,6.3369,6.34,6.3408,6.3423,6.3445,6.3472,6.3486,6.3518,6.3536,6.3561,6.3548,6.3509,6.3623,6.3566,6.3621,6.3622,6.3647,6.3645,6.3815,6.366,6.3659,6.3659,6.3659,0,6.3342,6.3402,6.3388,6.3428,6.3493,6.3474,6.3539,6.3543,6.3557,6.3596,6.3565,6.3603,6.3583,6.3619,6.3609,6.367,6.3678,6.3677,6.3673,6.368,6.368,6.3692,6.3684,6.3663,6.3662,6.3661,6.3661,0,6.3471,6.3464,6.3532,6.3543,6.3547,6.3595,6.3604,6.3641,6.3638,6.3688,6.3699,6.3694,6.3735,6.3724,6.3768,6.3761,6.3839,6.3826,6.3834,6.3831,6.3887,6.3882,6.407,6.4094,6.3923,6.3924,6.3926,0,6.3554,6.3599,6.3615,6.364,6.3651,6.3691,6.3714,6.3697,6.3722,6.3746,6.378,6.3819,6.3848,6.3915,6.3915,6.3949,6.3936,6.4,6.3941,6.3946,6.3937,6.3935,6.394,6.4012,6.4014,6.4015,6.4016,0,6.3702,6.3696,6.3731,6.3765,6.3793,6.3818,6.3841,6.3862,6.3847,6.3877,6.3919,6.3942,6.3988,6.4026,6.4057,6.4065,6.4039,6.4035,6.405,6.4057,6.4059,6.4059,6.3866,6.4031,6.4029,6.4028,6.4028,6.4027,6.381,6.3849,6.3867,6.3906,6.3921,6.3943,6.3979,6.3981,6.4016,6.4052,6.404,6.4088,6.4105,6.4144,6.4156,6.4192,6.4168,6.4189,6.4195,6.42,6.4208,6.4054,6.4198,6.4198,6.4197,6.4197,6.4196,0,6.3957,6.3966,6.4003,6.4036,6.4067,6.4041,6.4064,6.4092,6.4135,6.4153,6.4183,6.4232,6.4269,6.4272,6.4307,6.4336,6.4325,6.4346,6.4343,6.4346,6.4227,6.4211,6.4354,6.4354,6.4354,6.4354,6.4354,6.4354,6.4037,6.4101,6.4097,6.4169,6.4177,6.4225,6.4241,6.4261,6.4275,6.4331,6.4362,6.4364,6.4377,6.4412,6.4445,6.4445,6.4459,6.4485,6.4481,6.437,6.4354,6.4339,6.4324,6.4488,6.4489,6.4596,6.4597,6.4598]}]]